Location: Ago
(8.4667°N, 4.4833°E)
Time: 22:32:24
(UTC+00:00)

Cosmos 2034 Rocket - Pass Details

Date: 18 September 2020
Orbit: 957 x 1001 km, 82.9° (Epoch: 20 October)

Event Time Altitude Azimuth Distance (km) Brightness Sun altitude
Rises 18:42:26 0° 170° (S) 3,706 6.9 -16.2°
Reaches altitude 10° 18:45:04 10° 164° (SSE) 2,761 6.2 -16.9°
Maximum altitude 18:51:06 46° 92° (E) 1,316 4.2 -18.3°
Drops below altitude 10° 18:57:07 10° 21° (NNE) 2,764 6.2 -19.8°
Sets 18:59:44 0° 15° (NNE) 3,711 6.9 -20.5°
